YAOGAN-43 02D (60948 NORAD) Tracking and Keplerian Element Data

This shows tracking and keplerian element data for the satellite.

Feedback or suggestion? Click here.




ElementValue
Catalog60948
NameYAOGAN-43 02D
Epoch Orbit603
Epoch Day286.87492034
Epoch Year2024
RAAN89.1172
Inclination34.993
Eccentricity0.0003252
Argument of Perigee314.0216
Mean Anonmoly46.0231
Mean Motion15.23539476
Decay Rate0.00022764
L11 60948U 24156D 24286.87492034 .00022764 00000+0 92845-3 0 9995
L22 60948 34.9930 89.1172 0003252 314.0216 46.0231 15.23539476 6034



Live tracking and technical data element details for YAOGAN-43 02D (NORAD 60948). YAOGAN-43 02D can be tracked NOW for your location showing map with azimuth and elevation plus other details from your city location.







IsCatalogInMostPopularTable: catalog: 60948, numindb: 7
Update: records affected: 1



GetName: 60948 YAOGAN-43 02D

Hit Count: updated at: Fri, 06 Dec 2024 12:11:56 GMT